Tracking 19193 objects as of 24-Jun-2018
HD Live streaming from Space Station
objects crossing your sky now

SL-16 R/B

Track SL-16 R/B now!
10-day predictions
SL-16 R/B is classified as:


NORAD ID: 25407
Int'l Code: 1998-045B
Perigee: 841.1 km
Apogee: 852.6 km
Inclination: 71.0 °
Period: 101.7 minutes
Semi major axis: 7217 km
RCS: 12.0191 m2 (large)
Launch date: July 28, 1998
Source: Commonwealth of Independent States (former USSR) (CIS)
Launch site: TYURATAM MISSILE AND SPACE COMPLEX (TTMTR)

Note: This is a ROCKET BODY
aabbcc
Your satellite tracking list
Your tracking list is empty




NASA's NSSDC Master Catalog

Two Line Element Set (TLE):
1 25407U 98045B   18174.65020221  .00000183  00000-0  11736-3 0  9996
2 25407  71.0113 340.8048 0007963 345.7430  14.3467 14.15775315 28768
Source of the keplerian elements: AFSPC